FW8987 Weather Reports


time (UTC)temp
C
wind
direction
speed
KPH
gust
KPH
rain 1hr
cm
rain 24hr
cm
rain mn
cm
humidity
%
barometer
mb
20260510160016 13 252 4.8 9.7 0.00 0.00 0.00 47 1006.2
20260510155032 13 268 6.4 12.9 0.00 0.00 0.00 47 1006.1
20260510154032 14 233 6.4 14.5 0.00 0.00 0.00 41 1006.0
20260510153023 14 239 6.4 16.1 0.00 0.00 0.00 40 1006.2
20260510152018 15 232 6.4 20.9 0.00 0.00 0.00 40 1006.3
20260510151114 14 216 3.2 11.3 0.00 0.00 0.00 40 1006.4
20260510150029 14 191 3.2 6.4 0.00 0.00 0.00 39 1006.6
20260510145044 15 206 6.4 12.9 0.00 0.00 0.00 38 1006.8
20260510144019 15 234 4.8 11.3 0.00 0.00 0.00 37 1006.7
20260510143034 15 215 6.4 17.7 0.00 0.00 0.00 37 1007.1
20260510142035 15 218 6.4 14.5 0.00 0.00 0.00 37 1007.1
20260510141025 15 216 4.8 12.9 0.00 0.00 0.00 37 1007.2
20260510140020 15 191 4.8 9.7 0.00 0.00 0.00 36 1007.4
20260510135015 15 207 8.0 16.1 0.00 0.00 0.00 37 1007.6
20260510134030 15 195 4.8 11.3 0.00 0.00 0.00 37 1007.7
20260510133026 15 230 8.0 20.9 0.00 0.00 0.00 38 1007.7
20260510132021 15 189 4.8 9.7 0.00 0.00 0.00 39 1008.0
20260510131017 15 223 6.4 12.9 0.00 0.00 0.00 40 1008.1
20260510130053 14 210 6.4 12.9 0.00 0.00 0.00 40 1008.2
20260510125027 14 240 6.4 12.9 0.00 0.00 0.00 41 1008.4
20260510124022 14 236 9.7 16.1 0.00 0.00 0.00 41 1008.5
20260510123018 13 245 9.7 22.5 0.00 0.00 0.00 41 1008.6
20260510122033 13 250 11.3 24.1 0.00 0.00 0.00 40 1008.7
20260510121029 14 230 9.7 20.9 0.00 0.00 0.00 40 1008.9
20260510120024 15 239 9.7 17.7 0.00 0.00 0.00 44 1009.0
20260510115039 14 232 6.4 16.1 0.00 0.00 0.00 46 1009.1
20260510114035 14 223 6.4 9.7 0.00 0.00 0.00 45 1009.1
20260510113030 14 221 8.0 20.9 0.00 0.00 0.00 45 1009.4
20260510112026 14 235 8.0 22.5 0.00 0.00 0.00 45 1009.4
20260510111020 14 197 4.8 9.7 0.00 0.00 0.00 46 1009.7
20260510110036 14 203 6.4 11.3 0.00 0.00 0.00 46 1009.8
20260510105031 14 200 4.8 11.3 0.00 0.00 0.00 47 1009.8
20260510104026 14 201 6.4 16.1 0.00 0.00 0.00 48 1010.0
20260510103021 14 196 4.8 9.7 0.00 0.00 0.00 51 1010.2
20260510102017 14 213 4.8 11.3 0.00 0.00 0.00 51 1010.4
20260510101032 15 200 3.2 9.7 0.00 0.00 0.00 50 1010.5
20260510100048 14 200 4.8 12.9 0.00 0.00 0.00 50 1010.8
20260510095022 15 179 4.8 9.7 0.00 0.00 0.00 49 1010.8
20260510094018 14 209 6.4 12.9 0.00 0.00 0.00 50 1011.0
20260510093033 14 196 3.2 6.4 0.00 0.00 0.00 50 1010.9
20260510092028 14 175 6.4 20.9 0.00 0.00 0.00 49 1011.2
20260510091025 13 157 4.8 11.3 0.00 0.00 0.00 50 1011.2
20260510090019 13 184 4.8 12.9 0.00 0.00 0.00 51 1011.4
20260510085034 13 187 6.4 24.1 0.00 0.00 0.00 49 1011.5
20260510084031 15 209 8.0 24.1 0.00 0.00 0.00 47 1011.6
20260510083026 13 147 3.2 6.4 0.00 0.00 0.00 50 1011.7
20260510082021 13 168 3.2 11.3 0.00 0.00 0.00 50 1011.9
20260510081016 13 150 4.8 9.7 0.00 0.00 0.00 51 1012.1
20260510080032 13 173 3.2 6.4 0.00 0.00 0.00 50 1012.3
20260510075027 13 186 3.2 4.8 0.00 0.00 0.00 52 1012.4
20260510074103 12 145 4.8 11.3 0.00 0.00 0.00 54 1012.7
20260510073018 12 180 3.2 9.7 0.00 0.00 0.00 54 1012.9
20260510072034 12 148 3.2 12.9 0.00 0.00 0.00 55 1013.1
20260510071029 11 193 3.2 6.4 0.00 0.00 0.00 59 1013.2
20260510070023 11 188 3.2 11.3 0.00 0.00 0.00 59 1013.4
20260510065019 10 198 4.8 9.7 0.00 0.00 0.00 61 1013.5
20260510064034 10 191 3.2 4.8 0.00 0.00 0.00 61 1013.7
20260510063051 10 194 3.2 6.4 0.00 0.00 0.00 62 1014.0
20260510062046 8 193 3.2 9.7 0.00 0.00 0.00 63 1014.1
20260510061021 8 186 3.2 6.4 0.00 0.00 0.00 65 1014.3
20260510060016 8 187 3.2 9.7 0.00 0.00 0.00 65 1014.4
20260510055032 7 189 3.2 9.7 0.00 0.00 0.00 67 1014.5
20260510054027 7 188 3.2 9.7 0.00 0.00 0.00 67 1014.6
20260510053022 7 191 1.6 4.8 0.00 0.00 0.00 68 1014.7
20260510052018 6 191 3.2 9.7 0.00 0.00 0.00 68 1014.7
20260510051032 6 193 3.2 6.4 0.00 0.00 0.00 69 1014.9
20260510050027 6 189 3.2 6.4 0.00 0.00 0.00 70 1015.0
20260510045023 5 190 1.6 3.2 0.00 0.00 0.00 71 1015.1
20260510044023 5 188 0.0 3.2 0.00 0.00 0.00 73 1015.2
20260510043033 4 195 0.0 3.2 0.00 0.00 0.00 74 1015.3
20260510042028 4 189 1.6 4.8 0.00 0.00 0.00 74 1015.5
20260510041044 4 180 0.0 1.6 0.00 0.00 0.00 73 1015.5
20260510040019 3 179 0.0 3.2 0.00 0.00 0.00 73 1015.8
20260510035034 3 168 0.0 3.2 0.00 0.00 0.00 74 1015.9
20260510034029 2 171 0.0 3.2 0.00 0.00 0.00 76 1016.2
20260510033025 2 0.0 0.0 0.00 0.00 0.00 76 1016.3
20260510032021 2 176 0.0 1.6 0.00 0.00 0.00 74 1016.2
20260510031016 2 180 0.0 1.6 0.00 0.00 0.00 74 1016.4
20260510030212 2 0.0 0.0 0.00 0.00 0.00 75 1016.6
20260510025026 1 0.0 0.0 0.00 0.00 0.00 76 1016.7
20260510024042 1 0.0 0.0 0.00 0.00 0.00 77 1016.9
20260510023017 1 0.0 0.0 0.00 0.00 0.00 78 1017.1
20260510022033 1 0.0 0.0 0.00 0.00 0.00 77 1017.2
20260510021028 2 162 0.0 1.6 0.00 0.00 0.00 75 1017.2
20260510020023 2 0.0 0.0 0.00 0.00 0.00 74 1017.3
20260510015019 3 165 0.0 1.6 0.00 0.00 0.00 71 1017.5
20260510014035 3 0.0 0.0 0.00 0.00 0.00 70 1017.5
20260510013031 3 179 0.0 1.6 0.00 0.00 0.00 70 1017.6
20260510012026 3 181 0.0 1.6 0.00 0.00 0.00 69 1017.8
20260510011042 4 208 0.0 1.6 0.00 0.00 0.00 67 1018.0
20260510010016 4 171 0.0 1.6 0.00 0.00 0.00 66 1018.0
20260510005031 4 164 0.0 1.6 0.00 0.00 0.00 65 1018.0
20260510004025 5 167 1.6 3.2 0.00 0.00 0.00 64 1018.1
20260510003022 5 172 1.6 1.6 0.00 0.00 0.00 63 1018.3
20260510002016 5 201 1.6 3.2 0.00 0.00 0.00 63 1018.3
20260510001032 5 227 0.0 4.8 0.00 0.00 0.00 62 1018.5
20260510000027 5 210 1.6 6.4 0.00 0.00 0.00 63 1018.5
20260509235023 5 188 0.0 3.2 0.00 0.00 0.00 64 1018.7
20260509234038 6 181 0.0 1.6 0.00 0.00 0.00 63 1018.6
20260509233033 6 179 1.6 6.4 0.00 0.00 0.00 61 1018.7
20260509232049 6 189 0.0 3.2 0.00 0.00 0.00 62 1018.8
20260509231025 6 177 0.0 3.2 0.00 0.00 0.00 61 1019.0
20260509230100 7 200 1.6 4.8 0.00 0.00 0.00 59 1019.0
20260509225036 7 180 1.6 4.8 0.00 0.00 0.00 58 1019.0
20260509224030 7 184 3.2 6.4 0.00 0.00 0.00 57 1019.2
20260509223025 7 191 3.2 6.4 0.00 0.00 0.00 57 1019.3
20260509222020 8 197 3.2 11.3 0.00 0.00 0.00 56 1019.3
20260509221035 8 176 3.2 9.7 0.00 0.00 0.00 56 1019.5
20260509220030 8 193 3.2 9.7 0.00 0.00 0.00 55 1019.5
20260509215106 8 184 3.2 9.7 0.00 0.00 0.00 54 1019.5
20260509214021 8 177 1.6 4.8 0.00 0.00 0.00 53 1019.4
20260509213016 9 184 3.2 9.7 0.00 0.00 0.00 52 1019.6
20260509212031 9 188 1.6 9.7 0.00 0.00 0.00 52 1019.7
20260509211026 9 190 3.2 6.4 0.00 0.00 0.00 50 1019.7
20260509210026 10 176 1.6 9.7 0.00 0.00 0.00 49 1019.7
20260509205016 10 193 4.8 14.5 0.00 0.00 0.00 47 1019.5
20260509204031 10 193 4.8 11.3 0.00 0.00 0.00 47 1019.6
20260509203027 10 189 1.6 9.7 0.00 0.00 0.00 46 1019.7
20260509202023 10 203 4.8 9.7 0.00 0.00 0.00 45 1019.7
20260509201017 11 183 3.2 11.3 0.00 0.00 0.00 45 1019.8
20260509200033 11 186 1.6 9.7 0.00 0.00 0.00 44 1019.9
20260509195029 11 198 4.8 11.3 0.00 0.00 0.00 42 1019.9
20260509194024 11 199 3.2 6.4 0.00 0.00 0.00 43 1020.0
20260509193019 11 183 1.6 6.4 0.00 0.00 0.00 43 1019.8
20260509192035 11 192 3.2 9.7 0.00 0.00 0.00 42 1019.7
20260509191030 11 181 1.6 3.2 0.00 0.00 0.00 43 1019.8
20260509190046 11 186 0.0 1.6 0.00 0.00 0.00 43 1019.8
20260509185041 12 189 0.0 1.6 0.00 0.00 0.00 41 1019.9
20260509184015 12 185 0.0 1.6 0.00 0.00 0.00 39 1019.8
20260509183032 12 187 1.6 4.8 0.00 0.00 0.00 37 1019.7
20260509182026 12 183 1.6 4.8 0.00 0.00 0.00 36 1019.8
20260509181021 13 194 1.6 6.4 0.00 0.00 0.00 35 1019.8
20260509180016 13 189 1.6 3.2 0.00 0.00 0.00 35 1019.7
20260509175032 13 184 1.6 6.4 0.00 0.00 0.00 33 1019.7
20260509174028 14 187 3.2 9.7 0.00 0.00 0.00 32 1019.8
20260509173043 14 188 1.6 6.4 0.00 0.00 0.00 33 1019.7
20260509172017 14 195 3.2 9.7 0.00 0.00 0.00 31 1019.9
20260509171033 14 196 1.6 3.2 0.00 0.00 0.00 32 1019.9
20260509170028 15 192 1.6 3.2 0.00 0.00 0.00 31 1020.0
20260509165023 15 188 1.6 6.4 0.00 0.00 0.00 28 1020.0
20260509164018 15 200 4.8 9.7 0.00 0.00 0.00 27 1020.2
20260509163034 15 198 4.8 9.7 0.00 0.00 0.00 26 1020.3
20260509162054 15 210 6.4 14.5 0.00 0.00 0.00 26 1020.4
20260509161025 16 199 3.2 6.4 0.00 0.00 0.00 28 1020.5